Simultaneous Nadir Overpasses (SNOs) Predictions

Prediction of SNOs between METOP-A and NOAA-19 Satellite Orbit:

Table of predicted SNOs for the next 14.0 days since TLE Epoch: 5/12/2017
Index Date (METOP-A) Time (METOP-A) Lat,Lon (METOP-A) SZA (METOP-A ) Date (NOAA-19) Time (NOAA-19) Lat,Lon (NOAA-19) SZA (NOAA-19 ) Distance(km) Time Diff (sec)
1 05/18/2017 06:43:21 -77.21, -96.59 122.41 05/18/2017 06:42:09 -77.21, -96.54 122.41 1.20 72
2 05/18/2017 07:34:01 77.22, 70.76 57.59 05/18/2017 07:33:05 77.22, 70.72 57.59 1.01 56
3 05/18/2017 08:24:43 -77.19,-122.01 122.45 05/18/2017 08:24:10 -77.19,-121.92 122.45 2.13 33
4 05/18/2017 09:15:23 77.20, 45.34 57.55 05/18/2017 09:15:06 77.19, 45.33 57.55 0.52 17
5 05/18/2017 10:06:05 -77.18,-147.43 122.48 05/18/2017 10:06:11 -77.16,-147.31 122.49 3.17 6
6 05/18/2017 10:56:45 77.18, 19.91 57.52 05/18/2017 10:57:07 77.17, 19.94 57.51 1.41 22
7 05/18/2017 11:47:27 -77.16,-172.85 122.52 05/18/2017 11:48:13 -77.18,-172.89 122.49 2.77 46
8 05/18/2017 12:38:07 77.16, -5.51 57.48 05/18/2017 12:39:08 77.14, -5.44 57.47 2.48 61
9 05/18/2017 13:28:59 -76.70, 159.97 123.03 05/18/2017 13:30:04 -76.73, 163.56 122.90 92.03 65




NCC Satellite Simultaneous Nadir Overpasses (SNOs) Prediction Service
